Retour au catalogue

FENGYUN 1C DEB

ActifSSO
NORAD 30076·DEBRIS·🇨🇳 China

Lancé May 10, 1999 depuis Taiyuan Satellite Launch Center

Loading…

Prochains Passages (prochaines 24 heures)

TLE

FraisSource: Space-Track

Époque: Sep 14, 2026, 05:57 UTC

1 30076U 99025QD  26257.24800573  .00000177  00000-0  19998-3 0  9996
2 30076  99.2644 241.3547 0175947  87.6455 288.2845 13.76460466986841

Suivez FENGYUN 1C DEB en temps réel avec AllMySat

Download on the App Store